Flag for U.S.A. Weather past 2 weeks in Des Moines, Iowa, U.S.A.

Now
20 °F

Light snow. Ice fog.


Feels Like: 4 °F
Forecast: 13 / 33 °F
Wind: 20 mph from Northeast

Location: Des Moines International Airport

Current Time: Feb 1, 2015 at 4:18:14 PM

Latest Report: Feb 1, 2015 at 2:54 PM


Visibility: 0 mi

Pressure: 30.00 "Hg

Humidity: 78%

Dew point: 14 °F

Location of Des MoinesLocation

Historic Weather in Des Moines — Graph

°F

Des Moines temperature yesterday

Maximum temperature yesterday: 40 °F (at 11:54 AM)
Minimum temperature yesterday: 27 °F (at 12:54 AM)
Average temperature yesterday: 35 °F

Past Weeks' High & Low Weather Summary

 TemperatureHumidityPressure
High53 °F (Jan 24, 1:54 PM)92% (Jan 31, 4:54 PM)30.60 "Hg (Jan 31, 4:54 PM)
Low18 °F (Jan 30, 6:54 AM)36% (Jan 30, 2:54 PM)29.55 "Hg (Jan 25, 2:01 AM)
Average35 °F72%30.06 "Hg
* Reported Jan 17 2:54 PM — Feb 1 2:54 PM, Des Moines, Weather by CustomWeather, © 2014

Note: Actual official high and low records may vary slightly from our data, if they occured in-between our weather recording intervals... More about our weather records

Advertising

Des Moines weather history for previous 24 hours

 ConditionsComfort  
Time TempWeatherWind HumidityBarometerVisibility
2:54 PM
Feb 1
20 °FLight snow. Ice fog.20 mph78%30.00 "Hg1 mi
1:54 PM20 °FSnow. Ice fog.20 mph82%29.98 "Hg1 mi
12:54 PM21 °FSnow. Ice fog.22 mph81%29.95 "Hg1 mi
11:54 AM22 °FSnow. Ice fog.25 mph85%29.93 "Hg1 mi
10:54 AM23 °FHeavy snow. Ice fog.21 mph85%29.91 "Hg0 mi
9:54 AM29 °FSnow. Ice fog.22 mph85%29.86 "Hg1 mi
8:54 AM31 °FLight snow. Ice fog.18 mph89%29.84 "Hg1 mi
7:54 AM33 °FLight snow. Fog.12 mph88%29.81 "Hg1 mi
6:54 AM33 °FLight snow. Fog.9 mph92%29.81 "Hg1 mi
5:54 AM33 °FLight snow. Fog.8 mph92%29.81 "Hg1 mi
4:54 AM33 °FLight snow. Fog.7 mph92%29.82 "Hg2 mi
3:54 AM33 °FLight snow. Fog.7 mph92%29.84 "Hg1 mi
3:03 AM33 °FLight snow. Fog.7 mph92%29.84 "Hg1 mi
2:54 AM33 °FLight snow. Fog.8 mph92%29.87 "Hg1 mi
2:02 AM33 °FLight snow. Fog.8 mph92%29.87 "Hg1 mi
1:54 AM33 °FLight snow. Fog.7 mph92%29.90 "Hg1 mi
12:54 AM33 °FLight snow. Fog.8 mph92%29.92 "Hg1 mi
11:54 PM
Jan 31
33 °FLight snow. Fog.7 mph92%29.95 "Hg1 mi
10:54 PM34 °FLight snow. Fog.8 mph88%29.97 "Hg1 mi
9:54 PM34 °FLight snow. Fog.7 mph88%29.99 "Hg1 mi
8:54 PM34 °FLight snow. Fog.5 mph92%30.02 "Hg1 mi
7:54 PM34 °FLight snow. Fog.6 mph92%30.04 "Hg1 mi
6:54 PM34 °FLight snow. Fog.7 mph92%30.06 "Hg1 mi
5:54 PM35 °FLight snow. Fog.8 mph88%30.07 "Hg2 mi
4:54 PM35 °FLight snow. Fog.7 mph92%30.08 "Hg6 mi
Weather by CustomWeather, © 2014

See weather overviewHow to use our weather pages